Weather History for KBHK - August, 2013

Change the Weather History Date:

Friday, August 30, 2013

  Actual Average Record
Temperature  
Mean Temperature 77 °F -  
Max Temperature 91 °F 90 °F 98 °F (2008)
Min Temperature 63 °F 60 °F 39 °F (2003)
Cooling Degree Days 12    
Growing Degree Days 27 (Base 50)    
Moisture  
Dew Point 55 °F    
Average Humidity 51    
Maximum Humidity 75    
Minimum Humidity 24    
Precipitation  
Precipitation 0.00 in - - ()
Sea Level Pressure  
Sea Level Pressure 29.91 in    
Wind  
Wind Speed 8 mph (SSE)    
Max Wind Speed 16 mph    
Max Gust Speed 17 mph    
Visibility 10 miles    
Events      
Averages and records for this station are not official NWS values.
T = Trace of Precipitation, MM = Missing Value Source: NWS Daily Summary

Daily Weather History Graph

Daily Weather History Graph

Search for Another Location

Airport or City:

Trip Planner

Search our weather history database for the weather conditions in past years. The results will help you decide how hot, cold, wet, or windy it might be!

Date:

Astronomy

Aug. 30, 2013 Rise Set
Actual Time 6:15 AM MDT 7:39 PM MDT
Civil Twilight 5:43 AM MDT 8:10 PM MDT
Nautical Twilight 5:06 AM MDT 8:47 PM MDT
Astronomical Twilight 4:25 AM MDT 9:28 PM MDT
Moon 12:45 AM MDT (8/30) 4:06 PM MDT (8/30)
Length of Visible Light 14h 26m
Length of Day
13h 23m
Waning Crescent, 28% of the Moon is Illuminated
Aug 30
Waning Crescent
Sep 5
New
Sep 12
First Quarter
Sep 19
Full
Sep 26
Last Quarter

Hourly Weather History & Observations

Time (MDT) Temp. Heat Index Dew Point Humidity Pressure Visibility Wind Dir Wind Speed Gust Speed Precip Events Conditions
12:51 AM 64.0 °F - 55.0 °F 73% 29.99 in 10.0 mi SSE 8.1 mph - N/A   Clear
1:51 AM 64.9 °F - 55.9 °F 73% 29.99 in 10.0 mi ESE 6.9 mph - N/A   Clear
2:51 AM 63.0 °F - 55.0 °F 75% 29.99 in 10.0 mi SE 5.8 mph - N/A   Clear
3:51 AM 64.0 °F - 55.0 °F 73% 29.98 in 10.0 mi ESE 4.6 mph - N/A   Clear
4:51 AM 66.0 °F - 55.9 °F 70% 29.97 in 10.0 mi SE 9.2 mph - N/A   Clear
5:51 AM 63.0 °F - 55.0 °F 75% 29.97 in 10.0 mi SE 8.1 mph - N/A   Clear
6:51 AM 68.0 °F - 57.9 °F 70% 29.97 in 10.0 mi SSE 13.8 mph - N/A   Clear
7:51 AM 72.0 °F - 59.0 °F 64% 29.96 in 10.0 mi SSE 15.0 mph - N/A   Clear
8:51 AM 77.0 °F - 61.0 °F 58% 29.96 in 10.0 mi SE 16.1 mph - N/A   Clear
9:51 AM 82.0 °F 82.4 °F 60.1 °F 47% 29.96 in 10.0 mi South 10.4 mph - N/A   Clear
10:51 AM 86.0 °F 84.9 °F 57.0 °F 37% 29.94 in 10.0 mi SW 6.9 mph - N/A   Clear
11:51 AM 88.0 °F 86.1 °F 55.0 °F 32% 29.93 in 10.0 mi WSW 8.1 mph - N/A   Clear
12:51 PM 90.0 °F 87.7 °F 54.0 °F 29% 29.92 in 10.0 mi West 8.1 mph 17.3 mph N/A   Clear
1:51 PM 90.0 °F 87.5 °F 53.1 °F 28% 29.90 in 10.0 mi Variable 5.8 mph - N/A   Clear
2:51 PM 91.9 °F - 50.0 °F 24% 29.88 in 10.0 mi NW 8.1 mph - N/A   Clear
3:51 PM 91.9 °F - 50.0 °F 24% 29.86 in 10.0 mi WNW 9.2 mph - N/A   Clear
4:51 PM 91.0 °F - 50.0 °F 24% 29.85 in 10.0 mi NNW 10.4 mph - N/A   Clear
5:51 PM 89.1 °F 86.7 °F 53.1 °F 29% 29.84 in 10.0 mi NW 8.1 mph - N/A   Clear
6:51 PM 82.9 °F 81.8 °F 53.1 °F 36% 29.85 in 10.0 mi NW 6.9 mph - N/A   Clear
7:51 PM 77.0 °F - 55.0 °F 47% 29.87 in 10.0 mi NNW 5.8 mph - N/A   Clear
8:51 PM 75.9 °F - 55.9 °F 50% 29.83 in 10.0 mi ESE 3.5 mph - N/A   Clear
9:51 PM 68.0 °F - 54.0 °F 61% 29.83 in 10.0 mi Calm Calm - N/A   Clear
10:51 PM 64.9 °F - 54.0 °F 68% 29.83 in 10.0 mi SE 3.5 mph - N/A   Clear
11:51 PM 64.0 °F - 53.1 °F 67% 29.83 in 10.0 mi Calm Calm - N/A   Clear